Weather History for KDVK - May, 2013

Change the Weather History Date:

Tuesday, May 7, 2013

  Actual Average (KLEX) Record (KLEX)
Temperature  
Mean Temperature 58 °F 62 °F  
Max Temperature 69 °F 72 °F 89 °F (1936)
Min Temperature 46 °F 51 °F 33 °F (1989)
Degree Days  
Heating Degree Days 8 5  
Month to date heating degree days 38  
Since 1 July heating degree days 4527  
Cooling Degree Days 0 1  
Month to date cooling degree days 7  
Year to date cooling degree days 29  
Growing Degree Days 8 (Base 50)    
Moisture  
Dew Point 52 °F    
Average Humidity 85    
Maximum Humidity 100    
Minimum Humidity 53    
Precipitation  
Precipitation 0.00 in 0.16 in 2.80 in (1961)
Month to date precipitation 1.14  
Year to date precipitation 15.21  
Snow  
Snow 0.00 in 0.00 in 1.00 in (1898)
Month to date snowfall 0.0  
Since 1 July snowfall 13.0  
Snow Depth -    
Sea Level Pressure  
Sea Level Pressure 29.95 in    
Wind  
Wind Speed 2 mph (North)    
Max Wind Speed 9 mph    
Max Gust Speed 16 mph    
Visibility 9 miles    
Events Fog , Rain    
T = Trace of Precipitation, MM = Missing Value Source: NWS Daily Summary

Daily Weather History Graph

Daily Weather History Graph

Search for Another Location

Airport or City:

Trip Planner

Search our weather history database for the weather conditions in past years. The results will help you decide how hot, cold, wet, or windy it might be!

Date:

Astronomy

May. 07, 2013 Rise Set
Actual Time 6:36 AM EDT 8:34 PM EDT
Civil Twilight 6:08 AM EDT 9:03 PM EDT
Nautical Twilight 5:33 AM EDT 9:38 PM EDT
Astronomical Twilight 4:56 AM EDT 10:16 PM EDT
Moon 5:08 AM EDT (5/7) 6:35 PM EDT (5/7)
Length of Visible Light 14h 55m
Length of Day
13h 57m
Waning Crescent, 5% of the Moon is Illuminated
May 7
Waning Crescent
May 9
New
May 18
First Quarter
May 25
Full
May 31
Last Quarter

Hourly Weather History & Observations

Time (EDT) Temp. Windchill Dew Point Humidity Pressure Visibility Wind Dir Wind Speed Gust Speed Precip Events Conditions
12:15 AM 51.8 °F - 50.0 °F 94% 29.92 in 10.0 mi South 3.5 mph - N/A   Scattered Clouds
12:35 AM 50.0 °F - 50.0 °F 100% 29.92 in 10.0 mi WSW 3.5 mph - N/A   Clear
12:55 AM 50.0 °F - 50.0 °F 100% 29.92 in 10.0 mi West 3.5 mph - N/A   Scattered Clouds
1:15 AM 50.0 °F - 50.0 °F 100% 29.91 in 10.0 mi Calm Calm - N/A   Clear
1:35 AM 50.0 °F - 50.0 °F 100% 29.91 in 10.0 mi Calm Calm - N/A   Scattered Clouds
1:55 AM 50.0 °F - 50.0 °F 100% 29.90 in 10.0 mi Calm Calm - N/A   Mostly Cloudy
2:15 AM 50.0 °F - 50.0 °F 100% 29.90 in 10.0 mi Calm Calm - N/A   Mostly Cloudy
2:35 AM 50.0 °F - 50.0 °F 100% 29.91 in 10.0 mi Calm Calm - N/A   Overcast
2:55 AM 51.8 °F - 50.0 °F 94% 29.92 in 10.0 mi Calm Calm - N/A   Overcast
3:15 AM 51.8 °F - 50.0 °F 94% 29.91 in 10.0 mi Calm Calm - N/A   Overcast
3:35 AM 51.8 °F - 50.0 °F 94% 29.91 in 10.0 mi Calm Calm - N/A   Overcast
3:55 AM 51.8 °F - 50.0 °F 94% 29.92 in 10.0 mi Calm Calm - N/A   Overcast
4:15 AM 51.8 °F - 50.0 °F 94% 29.91 in 10.0 mi NW 3.5 mph - N/A   Overcast
4:35 AM 50.0 °F - 50.0 °F 100% 29.92 in 10.0 mi Calm Calm - N/A   Overcast
4:55 AM 50.0 °F - 50.0 °F 100% 29.92 in 10.0 mi Calm Calm - N/A   Mostly Cloudy
5:15 AM 50.0 °F - 48.2 °F 94% 29.92 in 5.0 mi Calm Calm - N/A   Scattered Clouds
5:35 AM 48.2 °F - 48.2 °F 100% 29.93 in 0.2 mi Calm Calm - N/A Fog Fog
5:55 AM 46.4 °F 44.3 °F 46.4 °F 100% 29.92 in 0.5 mi WSW 4.6 mph - N/A Fog Fog
6:15 AM 46.4 °F - 46.4 °F 100% 29.94 in 0.8 mi Calm Calm - N/A   Overcast
6:35 AM 46.4 °F 44.3 °F 46.4 °F 100% 29.94 in 1.5 mi NNW 4.6 mph - N/A   Overcast
6:55 AM 50.0 °F - 50.0 °F 100% 29.95 in 4.0 mi NNW 3.5 mph - N/A   Overcast
7:15 AM 50.0 °F - 50.0 °F 100% 29.96 in 0.8 mi North 3.5 mph - N/A   Overcast
7:35 AM 50.0 °F - 50.0 °F 100% 29.96 in 1.2 mi North 3.5 mph - N/A   Overcast
7:55 AM 51.8 °F - 51.8 °F 100% 29.96 in 4.0 mi Calm Calm - N/A   Overcast
8:15 AM 51.8 °F - 51.8 °F 100% 29.96 in 7.0 mi NNW 3.5 mph - N/A   Overcast
8:35 AM 51.8 °F - 51.8 °F 100% 29.97 in 10.0 mi Calm Calm - N/A   Overcast
8:55 AM 53.6 °F - 51.8 °F 94% 29.98 in 7.0 mi NNE 3.5 mph - N/A   Overcast
9:15 AM 53.6 °F - 51.8 °F 94% 29.98 in 7.0 mi ENE 4.6 mph - N/A   Overcast
9:35 AM 53.6 °F - 51.8 °F 94% 29.98 in 10.0 mi NNE 3.5 mph - N/A   Overcast
9:55 AM 55.4 °F - 51.8 °F 88% 29.98 in 10.0 mi Calm Calm - N/A   Overcast
10:15 AM 55.4 °F - 53.6 °F 94% 29.98 in 10.0 mi North 3.5 mph - N/A   Overcast
10:35 AM 57.2 °F - 53.6 °F 88% 29.99 in 10.0 mi Calm Calm - N/A   Overcast
10:55 AM 59.0 °F - 51.8 °F 77% 29.99 in 10.0 mi ENE 3.5 mph - N/A   Overcast
11:15 AM 59.0 °F - 51.8 °F 77% 29.99 in 10.0 mi ENE 4.6 mph - N/A   Overcast
11:35 AM 59.0 °F - 51.8 °F 77% 30.00 in 10.0 mi ENE 5.8 mph - N/A   Overcast
12:15 PM 60.8 °F - 53.6 °F 77% 30.00 in 10.0 mi NE 3.5 mph - N/A   Overcast
12:35 PM 60.8 °F - 53.6 °F 77% 30.00 in 10.0 mi NE 3.5 mph - N/A   Overcast
12:55 PM 60.8 °F - 53.6 °F 77% 30.00 in 10.0 mi NE 3.5 mph - N/A   Overcast
1:15 PM 62.6 °F - 53.6 °F 72% 29.99 in 10.0 mi NE 4.6 mph - N/A   Overcast
1:35 PM 62.6 °F - 53.6 °F 72% 29.98 in 10.0 mi North 5.8 mph - N/A   Mostly Cloudy
1:55 PM 62.6 °F - 53.6 °F 72% 29.98 in 10.0 mi Calm Calm - N/A   Overcast
2:15 PM 62.6 °F - 51.8 °F 68% 29.98 in 10.0 mi Calm Calm - N/A   Mostly Cloudy
2:35 PM 64.4 °F - 53.6 °F 68% 29.98 in 10.0 mi Calm Calm - N/A   Mostly Cloudy
2:55 PM 66.2 °F - 53.6 °F 64% 29.97 in 10.0 mi SE 4.6 mph - N/A   Overcast
3:15 PM 66.2 °F - 53.6 °F 64% 29.97 in 10.0 mi Calm Calm - N/A   Overcast
3:35 PM 64.4 °F - 51.8 °F 64% 29.96 in 10.0 mi Calm Calm - N/A   Overcast
3:55 PM 64.4 °F - 51.8 °F 64% 29.95 in 10.0 mi Calm Calm - N/A   Overcast
4:15 PM 64.4 °F - 53.6 °F 68% 29.95 in 10.0 mi NE 3.5 mph - N/A   Scattered Clouds
4:35 PM 68.0 °F - 51.8 °F 56% 29.95 in 10.0 mi Calm Calm - N/A   Mostly Cloudy
4:55 PM 68.0 °F - 53.6 °F 60% 29.94 in 10.0 mi North 5.8 mph - N/A   Mostly Cloudy
5:15 PM 69.8 °F - 51.8 °F 53% 29.94 in 10.0 mi North 3.5 mph - N/A   Mostly Cloudy
5:55 PM 66.2 °F - 53.6 °F 64% 29.95 in 10.0 mi NNW 9.2 mph 16.1 mph N/A   Overcast
6:15 PM 66.2 °F - 53.6 °F 64% 29.95 in 10.0 mi NW 8.1 mph - N/A   Mostly Cloudy
6:35 PM 64.4 °F - 53.6 °F 68% 29.94 in 10.0 mi NW 8.1 mph - N/A   Scattered Clouds
6:55 PM 64.4 °F - 53.6 °F 68% 29.94 in 10.0 mi WNW 5.8 mph - N/A   Scattered Clouds
7:15 PM 64.4 °F - 53.6 °F 68% 29.94 in 10.0 mi NW 5.8 mph - N/A   Clear
7:55 PM 64.4 °F - 53.6 °F 68% 29.94 in 10.0 mi Calm Calm - N/A   Scattered Clouds
8:15 PM 62.6 °F - 53.6 °F 72% 29.95 in 10.0 mi Calm Calm - N/A   Scattered Clouds
8:35 PM 60.8 °F - 53.6 °F 77% 29.96 in 10.0 mi Calm Calm - N/A   Mostly Cloudy
8:55 PM 60.8 °F - 55.4 °F 82% 29.96 in 10.0 mi East 6.9 mph - N/A   Drizzle
9:15 PM 59.0 °F - 55.4 °F 88% 29.96 in 10.0 mi Calm Calm - N/A   Overcast
9:35 PM 59.0 °F - 55.4 °F 88% 29.97 in 10.0 mi Calm Calm - N/A   Overcast
9:55 PM 59.0 °F - 55.4 °F 88% 29.98 in 10.0 mi Calm Calm - N/A   Drizzle
10:15 PM 59.0 °F - 55.4 °F 88% 29.98 in 10.0 mi Calm Calm - N/A Rain Light Rain
10:35 PM 57.2 °F - 55.4 °F 94% 29.98 in 10.0 mi Calm Calm - N/A Rain Light Rain
10:55 PM 57.2 °F - 55.4 °F 94% 29.99 in 10.0 mi WNW 3.5 mph - N/A Rain Light Rain
11:15 PM 57.2 °F - 55.4 °F 94% 29.99 in 10.0 mi West 3.5 mph - N/A Rain Rain
11:35 PM 57.2 °F - 55.4 °F 94% 29.98 in 10.0 mi Calm Calm - N/A Rain Rain
11:55 PM 57.2 °F - 55.4 °F 94% 29.97 in 10.0 mi Calm Calm - N/A Rain Light Rain